Retour au catalogue

STARLINK-4652

ActifCommunicationsVLEO
NORAD 53736·PAYLOAD·🇺🇸 United States

Lancé Sep 5, 2022 depuis Cape Canaveral Space Force Station

Loading…

Prochains Passages (prochaines 24 heures)

TLE

FraisSource: CelesTrak SupGP

Époque: Sep 14, 2026, 21:21 UTC

1 53736C 22107AN  26257.89006944 -.00036979  00000+0 -10581-2 0  2577
2 53736  53.1572 110.1205 0001218  85.7548   8.4482 15.35414051    14

Suivez STARLINK-4652 en temps réel avec AllMySat

Download on the App Store